Location: Buch
(49.7331°N, 12.1098°E)
Time: 03:07:28
(UTC+00:00)

Cosmos 1238 Rocket - Pass Details

Date: 12 May 2021
Orbit: 373 x 1021 km, 82.9° (Epoch: 23 June)

Event Time Altitude Azimuth Distance (km) Brightness Sun altitude
Rises 21:15:49 0° 352° (N) 3,713 8.4 -17.5°
Reaches altitude 10° 21:18:33 10° 356° (N) 2,706 7.4 -17.7°
Maximum altitude 21:24:42 58° 75° (ENE) 1,008 4.0 -18.2°
Enters shadow 21:27:11 32° 141° (SE) 1,390 4.3 -18.3°
